Home > Weather > Cahul > Past weeks

Flag for Moldova Past Weather in Cahul, Moldova — Yesterday and Last 2 Weeks

Now
73 °F

Clear.


Feels Like: 74 °F
Forecast: 64 / 90 °F
Wind: 1 mph from Northeast

Location: Galati

Current Time: Jun 26, 2016 at 12:33:08 AM

Latest Report: Jun 26, 2016 at 12:00 AM


Visibility: 13 mi

Pressure: 30.04 "Hg

Humidity: 76%

Dew Point: 65 °F

Location of CahulLocation

Past Weather in Cahul — Graph

°F

Cahul Temperature Yesterday

Maximum temperature yesterday: 90 °F (at 4:00 PM)
Minimum temperature yesterday: 71 °F (at 1:00 AM)
Average temperature yesterday: 79 °F

High & Low Weather Summary for the Past Weeks

 TemperatureHumidityPressure
High96 °F (Jun 21, 5:00 PM)100% (Jun 13, 2:00 AM)30.20 "Hg (Jun 13, 2:00 AM)
Low58 °F (Jun 11, 6:00 AM)32% (Jun 16, 7:00 PM)29.44 "Hg (Jun 14, 7:00 PM)
Average76 °F69%29.95 "Hg
* Reported Jun 10 11:00 PM — Jun 25 11:00 PM, Cahul, Weather by CustomWeather, © 2016

Note: Actual official high and low records may vary slightly from our data, if they occured in-between our weather recording intervals... More about our weather records

Advertising

Cahul Weather History for the Previous 24 Hours

Scroll right to see more
 ConditionsComfort  
Time TempWeatherWind HumidityBarometerVisibility
11:00 PM
Sat, Jun 25
75 °FClear.No wind73%30.04 "Hg12 mi
10:00 PM76 °FClear.No wind66%30.03 "Hg12 mi
9:00 PM80 °FClear.1 mph54%30.02 "Hg12 mi
8:00 PM84 °FSunny.3 mph47%30.02 "Hg12 mi
7:00 PM86 °FPassing clouds.3 mph41%30.02 "Hg12 mi
6:00 PM88 °FPassing clouds.3 mph44%30.03 "Hg12 mi
5:00 PM89 °FScattered clouds.2 mph45%30.03 "Hg12 mi
4:00 PM90 °FScattered clouds.1 mph48%30.04 "Hg12 mi
3:00 PM88 °FPartly sunny.1 mph51%30.06 "Hg12 mi
2:00 PM79 °FPartly sunny.1 mph77%30.08 "Hg12 mi
1:00 PM83 °FPartly sunny.1 mph68%30.08 "Hg12 mi
12:00 PM82 °FOvercast.1 mph73%30.09 "Hg12 mi
11:00 AM81 °FPartly sunny.2 mph71%30.09 "Hg12 mi
10:00 AM79 °FPartly sunny.2 mph77%30.09 "Hg12 mi
9:00 AM78 °FOvercast.2 mph76%30.09 "Hg12 mi
8:00 AM75 °FOvercast.2 mph88%30.09 "Hg12 mi
7:00 AM74 °FPartly sunny.2 mph90%30.08 "Hg12 mi
6:00 AM72 °FScattered clouds.2 mph95%30.08 "Hg12 mi
5:00 AM72 °FPassing clouds.2 mph92%30.08 "Hg12 mi
4:00 AM73 °FOvercast.2 mph90%30.09 "Hg12 mi
3:00 AM72 °FPassing clouds.1 mph91%30.09 "Hg12 mi
2:00 AM72 °FClear.1 mph93%30.10 "Hg12 mi
1:00 AM71 °FPassing clouds.1 mph93%30.11 "Hg12 mi
12:00 AM73 °FPassing clouds.No wind90%30.12 "Hg12 mi
Weather by CustomWeather, © 2016

See weather overviewHow to use our weather pages